Location: Fabas
(43.3145°N, 0.8945°E)
Time: 01:36:03
(UTC+00:00)

Daily predictions for brighter satellites

Satellite Brightness Start Highest point End
(mag) Time Altitude Azimuth Time Altitude Azimuth Time Altitude Azimuth
Cosmos 1844 Rocket 4.2 04:00:06 31° ESE 04:00:06 31° ESE 04:03:24 10° SE
Cosmos 2333 Rocket 4.1 04:03:24 16° SSE 04:06:38 27° ESE 04:11:17 10° NE
SJ 16-02 3.6 04:15:34 23° E 04:15:34 23° E 04:18:12 10° ESE
Cosmos 2219 Rocket 3.8 04:15:50 10° SSE 04:20:39 31° ESE 04:25:29 10° NE
SL-16 R/B 4.2 04:42:04 17° N 04:42:04 17° N 04:43:26 10° N
Cosmos 2322 Rocket 3.9 04:49:36 20° N 04:49:36 20° N 04:51:29 10° N
Cosmos 2360 Rocket 2.9 04:49:48 39° N 04:49:48 39° N 04:53:27 10° NNE
SKYMED 2 4.1 04:48:36 10° SSE 04:52:51 56° ENE 04:53:11 54° NE
Meteor 1-24 Rocket 3.6 04:52:22 47° N 04:54:02 82° E 04:59:38 10° SSE
CZ-4B R/B 3.9 04:55:34 10° NNE 04:58:58 39° E 05:02:24 10° S
BREEZE-M DEB (TANK) 4.2 04:57:50 48° WNW 05:00:09 85° NNE 05:26:08 10° ESE
FALCON 9 R/B 4.0 05:01:32 16° SSW 05:01:32 16° SSW 05:04:06 10° SSE
GEOS 3 Rocket 3.6 04:56:34 10° SE 05:01:55 88° NE 05:03:06 57° NW
Cosmos 1758 4.4 05:00:00 10° SSE 05:03:48 44° E 05:07:41 10° NNE
Cosmos 1867 4.0 05:05:49 44° NNW 05:05:49 44° NNW 05:10:11 10° NNE
Cosmos 2233 Rocket 3.9 04:59:38 10° SSW 05:05:49 61° W 05:12:01 10° N
MOS 1 Rocket 4.0 05:03:43 10° SSE 05:08:45 59° ENE 05:13:32 10° N
Cosmos 1844 3.7 05:10:56 56° WNW 05:11:48 63° WSW 05:17:30 10° S
deb Chang Zheng 4 3.5 05:10:04 10° NNE 05:14:21 80° ESE 05:18:34 10° SSW
GPS 2-04 Rocket1 4.2 05:17:40 27° S 05:17:51 27° S 05:21:24 10° SE
YAOGAN 6 4.4 05:16:39 10° NNE 05:20:02 33° E 05:23:24 10° SSE
Meteor PRIRODA 3.6 05:20:33 10° NNE 05:24:11 79° ESE 05:27:47 10° S
Cosmos 44 4.2 05:25:12 36° WSW 05:25:12 36° WSW 05:29:45 10° S
Cosmos 1470 4.0 05:28:53 27° N 05:28:53 27° N 05:30:46 10° N
ERS-2 1.9 05:23:37 10° S 05:27:15 78° WSW 05:27:19 78° W
Cosmos 1892 Rocket 3.5 05:25:25 18° N 05:28:36 88° E 05:32:58 10° S
Lacrosse 5 rocket 3.3 05:28:41 16° N 05:29:45 17° NNE 05:32:20 10° ENE
Cosmos 468 Rocket 4.0 05:25:43 10° SSW 05:30:56 82° ESE 05:36:15 10° NNE
Cosmos 1891 Rocket 4.4 05:28:35 10° S 05:34:50 88° W 05:41:01 10° N
IRIDIUM 104 4.3 05:31:59 10° SSW 05:37:06 57° W 05:42:15 10° N
Cosmos 1464 Rocket 3.9 05:31:36 10° S 05:37:43 89° E 05:43:53 10° N
Cosmos 1937 Rocket 4.1 05:32:34 10° NNW 05:37:48 56° ENE 05:42:56 10° SE
Meteor 2-10 4.1 05:34:10 10° SSW 05:39:51 75° W 05:45:26 10° N
COSMO-SKYMED 1 2.8 05:36:49 10° S 05:40:58 43° W 05:41:49 38° WNW
Cosmos 1726 2.0 05:37:21 10° SSW 05:41:01 66° W 05:44:44 10° N
Cosmos 1072 Rocket 4.4 05:34:56 10° S 05:41:06 80° W 05:47:24 10° N
Cosmos 1844 Rocket 3.5 05:41:50 28° WSW 05:41:50 28° WSW 05:46:26 10° SSW
Envisat 3.3 05:36:44 10° NNE 05:41:49 68° ESE 05:46:52 10° S
ADEOS 4.1 05:37:48 10° N 05:42:29 34° WNW 05:43:46 30° W
USA 276 2.2 05:42:39 57° SW 05:42:44 57° SSW 05:45:48 10° SE
Cosmos 2278 Rocket 2.8 05:38:19 10° NNW 05:43:56 57° ENE 05:49:30 10° SE
Cosmos 2322 4.0 05:44:23 21° WSW 05:47:53 42° WNW 05:53:20 10° NNE
Cosmos 2333 Rocket 2.4 05:45:36 12° SW 05:50:36 46° WNW 05:56:04 10° NNE
NOSS 0 Rocket 4.2 05:44:51 10° SSW 05:51:01 72° ESE 05:57:10 10° NNE
SJ 16-02 2.0 05:52:37 31° W 05:53:13 32° W 05:57:05 10° SSW
Cosmos 1356 Rocket 3.9 05:52:15 25° WSW 05:53:44 34° WNW 05:57:30 10° N
Cosmos 2237 Rocket 2.9 05:49:03 10° S 05:54:34 58° ESE 06:00:09 10° NNE
Cosmos 921 Rocket 2.9 05:51:02 10° SSW 05:55:18 65° WNW 05:59:32 10° NNE
PSLV R/B 4.0 05:52:09 10° S 05:56:08 52° W 05:59:40 13° NNW
USA 215 4.5 05:51:26 10° ENE 05:56:52 29° N 06:01:31 13° NW
H-2A R/B 2.8 05:53:58 10° N 05:57:33 49° WNW 06:01:07 10° SSW
Cosmos 1340 4.1 05:54:22 10° N 05:57:55 39° ENE 06:01:27 10° SE
ATLAS 5 CENTAUR R/B 1.2 05:57:25 40° WNW 05:58:11 69° SW 06:03:01 10° SE
Cosmos 1461 3.3 05:53:33 10° SSW 05:58:13 81° ESE 06:03:00 10° NE
Okean 1-7 Rocket 3.6 05:55:40 10° NNW 06:00:12 66° W 06:04:40 10° S
PSLV R/B 3.7 05:56:28 10° NNE 06:00:24 88° WNW 06:04:24 10° SSW
SMAP 4.0 05:56:57 10° NNE 06:01:30 51° E 06:06:01 10° S
Cosmos 2084 3.8 05:59:56 23° WSW 06:02:12 42° NW 06:06:21 10° NNE
Cosmos 1544 Rocket 3.4 05:58:56 10° SSW 06:03:14 74° W 06:07:34 10° N
Cosmos 2219 Rocket 2.5 05:59:12 10° SW 06:04:26 40° WNW 06:09:42 10° NNE
BREEZE-M (TANK) 1.5 06:05:09 35° NW 06:05:46 54° NNE 06:07:40 10° ESE
CZ-2C R/B 3.0 06:02:43 10° SSE 06:07:50 66° ENE 06:13:05 10° N
Cosmos 1092 Rocket 4.4 06:02:43 10° N 06:08:51 65° E 06:14:57 10° SSE
COSMOS 2428 3.0 06:04:24 10° SW 06:09:50 44° WNW 06:15:17 10° NNE
Cosmos 1953 2.3 06:08:33 10° SSW 06:12:30 61° W 06:16:27 10° N
Spot 2 3.9 06:08:39 10° NNE 06:12:44 88° ESE 06:16:46 10° SSW
Cosmos 2034 Rocket 4.0 06:06:44 10° SSW 06:13:04 70° W 06:19:27 10° N
Cosmos 1689 Rocket 3.1 06:10:42 10° SSW 06:13:12 25° W 06:13:40 24° W
BREEZE M DEB (TANK) 2.4 06:16:13 21° WSW 06:16:55 26° SW 06:18:47 10° SSE
Cosmos 990 Rocket 4.5 06:15:12 10° NW 06:19:51 38° WSW 06:24:34 10° S
Cosmos 1626 Rocket 3.5 06:19:02 10° NNW 06:23:30 71° W 06:27:56 10° S
Cosmos 540 Rocket 3.4 06:20:31 10° SSW 06:25:35 68° WNW 06:30:43 10° NNE
SL-8 R/B 3.8 06:22:00 15° WNW 06:25:59 75° NNE 06:30:48 10° ESE
Cosmos 1980 3.6 06:20:57 10° SSW 06:26:36 76° WNW 06:32:17 10° NNE
Nadezhda 4 Rocket 4.1 06:23:05 10° NNW 06:29:01 54° W 06:34:55 10° SSW
Cosmos 1455 Rocket 4.0 06:27:07 10° SW 06:30:44 25° WNW 06:34:21 10° NNW
AQUARIUS 4.2 06:26:46 10° NNE 06:31:17 89° WNW 06:35:47 10° SSW
CORIOLIS 4.4 06:26:15 10° NNE 06:31:38 78° ESE 06:36:57 10° S
NOAA 12 4.1 06:26:20 10° NNE 06:31:38 86° WNW 06:36:56 10° SSW
Cosmos 1634 Rocket 4.2 06:26:07 10° S 06:32:15 77° E 06:38:26 10° N
Cosmos 2360 Rocket 3.9 06:31:36 11° WNW 06:33:05 12° NW 06:35:15 10° NNW
CZ-4B R/B 4.3 06:31:50 10° NNW 06:33:45 14° WNW 06:35:40 10° W
Cosmos 1300 3.9 06:30:49 10° SSE 06:34:27 46° E 06:38:07 10° NNE
CZ-4B DEB 4.3 06:29:25 10° N 06:34:53 59° WNW 06:40:20 10° SSW
Okean O Rocket 1.7 06:30:55 10° NNE 06:35:20 83° ESE 06:39:41 10° SSW
Lacrosse 4 Rocket 3.0 06:34:48 10° S 06:38:43 41° ESE 06:42:47 10° NE
Cosmos 2228 4.0 06:35:13 10° SSE 06:39:20 50° E 06:43:27 10° NNE
Cosmos 1898 Rocket 4.3 06:35:41 10° NW 06:40:08 29° W 06:44:33 10° SSW
Cosmos 1758 Rocket 3.8 06:39:20 10° N 06:43:50 77° E 06:48:19 10° SSE
Cosmos 1908 3.7 06:40:44 10° SSW 06:44:16 37° WNW 06:47:51 10° N
Cosmos 1763 Rocket 4.4 06:40:05 10° WSW 06:44:24 26° WNW 06:48:47 10° N
Cosmos 2098 Rocket 4.2 06:37:56 10° N 06:44:35 75° E 06:49:57 10° SSE
Cosmos 1570 Rocket 4.0 06:40:37 10° SSW 06:45:45 59° WNW 06:50:57 10° NNE
Cosmos 841 Rocket 3.7 06:42:25 10° SW 06:47:21 47° WNW 06:52:19 10° N
YAOGAN 6 4.1 06:50:46 10° NNW 06:53:15 17° WNW 06:55:44 10° WSW
